Home   Weather   Aarhus   Past weeks

Flag for Denmark Past Weather in Aarhus, Denmark — Yesterday and Last 2 Weeks

Now
64 °F

Partly sunny.


Feels Like: 64 °F
Forecast: 53 / 62 °F
Wind: 12 mph from West

Location: Tirstrup

Current Time: Jun 24, 2017 at 2:10:38 pm

Latest Report: Jun 24, 2017 at 1:50 pm


Visibility: N/A

Pressure: 29.65 "Hg

Humidity: 60%

Dew Point: 50 °F

Location of AarhusLocation

Past Weather in Aarhus — Graph

°F

Aarhus Temperature Yesterday

Maximum temperature yesterday: 68 °F (at 11:20 am)
Minimum temperature yesterday: 59 °F (at 11:20 pm)
Average temperature yesterday: 63 °F

High & Low Weather Summary for the Past Weeks

 TemperatureHumidityPressure
High79 °F (Jun 18, 3:20 pm)100% (Jun 9, 12:20 pm)30.18 "Hg (Jun 9, 12:20 pm)
Low50 °F (Jun 21, 2:20 am)43% (Jun 17, 2:20 pm)29.62 "Hg (Jun 23, 12:20 am)
Average61 °F73%29.92 "Hg
* Reported Jun 9 12:20 pm — Jun 24 12:50 pm, Aarhus. Weather by CustomWeather, © 2017

Note: Actual official high and low records may vary slightly from our data, if they occured in-between our weather recording intervals... More about our weather records

Advertising

Aarhus Weather History for the Previous 24 Hours

Scroll right to see more
 ConditionsComfort  
Time TempWeatherWind HumidityBarometerVisibility
12:50 pm
Sat, Jun 24
64 °FBroken clouds.10 mph64%29.65 "HgN/A
12:20 pm63 °FPartly sunny.12 mph68%29.65 "HgN/A
11:50 am63 °FBroken clouds.10 mph73%29.65 "HgN/A
11:20 am61 °FPartly sunny.8 mph83%29.65 "HgN/A
10:50 am61 °FPartly sunny.7 mph83%29.65 "HgN/A
10:20 am59 °FPartly sunny.7 mph88%29.65 "HgN/A
9:50 am59 °FDrizzle. Partly sunny.7 mph88%29.68 "Hg4 mi
9:20 am61 °FBroken clouds.8 mph83%29.68 "HgN/A
8:20 am59 °FBroken clouds.8 mph94%29.68 "HgN/A
7:50 am59 °FPartly sunny.7 mph94%29.68 "HgN/A
7:20 am59 °FBroken clouds.8 mph94%29.68 "HgN/A
6:50 am59 °FScattered clouds.7 mph94%29.68 "HgN/A
6:20 am59 °FSprinkles. Partly sunny.8 mph94%29.68 "HgN/A
5:50 am59 °FRain. Partly sunny.9 mph94%29.68 "Hg2 mi
5:20 am59 °FDrizzle. Partly sunny.6 mph94%29.68 "Hg2 mi
4:50 am59 °FLow clouds.6 mph94%29.71 "HgN/A
4:20 am59 °FSprinkles. Passing clouds.6 mph94%29.71 "Hg6 mi
3:50 am59 °FSprinkles. Low clouds.6 mph94%29.71 "Hg4 mi
3:20 am59 °FSprinkles. Fog.6 mph94%29.71 "Hg2 mi
2:50 am59 °FLow clouds.8 mph94%29.74 "Hg4 mi
2:20 am59 °FPartly cloudy.10 mph94%29.74 "Hg4 mi
1:50 am59 °FPassing clouds.13 mph88%29.74 "HgN/A
1:20 am59 °FPartly cloudy.9 mph88%29.74 "HgN/A
12:50 am59 °FPassing clouds.10 mph88%29.74 "HgN/A
12:20 am59 °FLow clouds.8 mph88%29.77 "HgN/A
11:50 pm
Fri, Jun 23
59 °FFog.8 mph82%29.77 "Hg3 mi
11:20 pm59 °FOvercast.6 mph82%29.77 "HgN/A
10:50 pm61 °FPassing clouds.7 mph72%29.77 "HgN/A
10:20 pm61 °FPassing clouds.8 mph72%29.77 "HgN/A
9:50 pm61 °FSprinkles. Partly sunny.8 mph77%29.77 "HgN/A
9:20 pm61 °FPartly sunny.9 mph72%29.77 "HgN/A
8:50 pm61 °FPartly sunny.10 mph77%29.77 "HgN/A
8:20 pm61 °FLight rain. Partly sunny.10 mph77%29.77 "HgN/A
7:50 pm63 °FPartly sunny.8 mph73%29.77 "HgN/A
7:20 pm64 °FBroken clouds.10 mph68%29.77 "HgN/A
6:50 pm64 °FPartly sunny.10 mph68%29.77 "HgN/A
6:20 pm64 °FPartly sunny.10 mph73%29.77 "HgN/A
5:50 pm63 °FPartly sunny.13 mph77%29.77 "HgN/A
5:20 pm64 °FPartly sunny.16 mph73%29.77 "HgN/A
4:50 pm64 °FPartly sunny.15 mph83%29.77 "HgN/A
4:20 pm63 °FPartly sunny.13 mph94%29.77 "HgN/A
3:50 pm64 °FRain. Partly sunny.15 mph88%29.74 "HgN/A
3:20 pm64 °FLots of rain. Partly sunny.14 mph88%29.74 "Hg4 mi
2:50 pm66 °FSprinkles. Partly sunny.7 mph83%29.74 "Hg5 mi
2:20 pm66 °FDrizzle. Partly sunny.7 mph78%29.74 "Hg6 mi
Weather by CustomWeather, © 2017

See weather overviewHow to use our weather pages